Weather History for Hill City, KS

Change the Weather History Date:

Friday, March 1, 2013

  Actual Average Record
Temperature  
Mean Temperature 29 °F 37 °F  
Max Temperature 39 °F 51 °F 85 °F (2006)
Min Temperature 18 °F 23 °F -4 °F (1980)
Degree Days  
Heating Degree Days 37    
Moisture  
Dew Point 25 °F    
Average Humidity 84    
Maximum Humidity 96    
Minimum Humidity 65    
Precipitation  
Precipitation 0.00 in 0.03 in 0.01 in (2001)
Month to date precipitation 0.00 0.03  
Year to date precipitation 0.62 1.00  
Sea Level Pressure  
Sea Level Pressure 30.34 in    
Wind  
Wind Speed 4 mph (North)    
Max Wind Speed 12 mph    
Max Gust Speed -    
Visibility 8 miles    
Events      
T = Trace of Precipitation, MM = Missing Value Source: NWS Daily Summary

Daily Weather History Graph

Daily Weather History Graph

Search for Another Location

Airport:

Trip Planner

Search our weather history database for the weather conditions in past years. The results will help you decide how hot, cold, wet, or windy it might be!

Date:

Astronomy

Mar. 01, 2013 Rise Set
Actual Time 7:11 AM CST 6:32 PM CST
Civil Twilight 6:44 AM CST 6:58 PM CST
Nautical Twilight 6:13 AM CST 7:30 PM CST
Astronomical Twilight 5:42 AM CST 8:01 PM CST
Moon 11:05 PM CST (3/1) 9:01 AM CST (3/1)
Length of Visible Light 12h 14m
Length of Day
11h 20m
Waning Gibbous, 83% of the Moon is Illuminated
Mar 1
Waning Gibbous
Mar 4
Last Quarter
Mar 11
New
Mar 19
First Quarter
Mar 27
Full

Hourly Weather History & Observations

Time (CST) Temp. Windchill Dew Point Humidity Pressure Visibility Wind Dir Wind Speed Gust Speed Precip Events Conditions
12:53 AM 24.1 °F - 21.9 °F 91% 30.28 in 7.0 mi Calm Calm - N/A   Overcast
2:53 AM 25.0 °F - 23.0 °F 92% 30.27 in 8.0 mi Calm Calm - N/A   Overcast
3:53 AM 21.9 °F 14.5 °F 19.9 °F 92% 30.28 in 7.0 mi North 5.8 mph - N/A   Scattered Clouds
4:53 AM 19.9 °F 13.4 °F 19.0 °F 96% 30.30 in 7.0 mi North 4.6 mph - N/A   Partly Cloudy
5:53 AM 19.0 °F 11.1 °F 17.1 °F 92% 30.31 in 6.0 mi North 5.8 mph - N/A   Scattered Clouds
6:53 AM 19.0 °F 12.3 °F 18.0 °F 96% 30.35 in 6.0 mi NNW 4.6 mph - N/A   Overcast
7:53 AM 21.9 °F - 21.0 °F 96% 30.35 in 5.0 mi Calm Calm - N/A   Overcast
8:53 AM 25.0 °F - 24.1 °F 96% 30.36 in 5.0 mi Calm Calm - N/A   Overcast
9:53 AM 28.0 °F 24.2 °F 25.0 °F 88% 30.38 in 7.0 mi West 3.5 mph - N/A   Overcast
10:14 AM 28.4 °F 23.3 °F 26.6 °F 93% 30.30 in 7.0 mi West 4.6 mph - N/A   Overcast
10:53 AM 32.0 °F - 27.0 °F 82% 30.37 in 8.0 mi Calm Calm - N/A   Overcast
11:53 AM 35.1 °F 30.1 °F 28.9 °F 78% 30.37 in 10.0 mi North 5.8 mph - N/A   Overcast
12:19 PM 37.4 °F 31.4 °F 28.4 °F 70% 30.30 in 10.0 mi North 8.1 mph - N/A   Scattered Clouds
12:53 PM 37.0 °F 30.4 °F 28.9 °F 73% 30.36 in 10.0 mi North 9.2 mph - N/A   Mostly Cloudy
1:03 PM 37.4 °F 29.8 °F 30.2 °F 75% 30.29 in 10.0 mi North 11.5 mph - N/A   Mostly Cloudy
1:53 PM 37.0 °F 29.3 °F 28.9 °F 73% 30.34 in 10.0 mi North 11.5 mph - N/A   Overcast
2:26 PM 37.4 °F 30.8 °F 28.4 °F 70% 30.28 in 10.0 mi NNW 9.2 mph - N/A   Scattered Clouds
2:53 PM 37.0 °F 29.3 °F 28.9 °F 73% 30.34 in 10.0 mi North 11.5 mph - N/A   Clear
3:53 PM 37.9 °F 31.5 °F 28.9 °F 70% 30.35 in 10.0 mi NNE 9.2 mph - N/A   Clear
4:53 PM 37.9 °F 32.7 °F 27.0 °F 65% 30.35 in 10.0 mi NNE 6.9 mph - N/A   Clear
5:53 PM 36.0 °F 33.3 °F 27.0 °F 70% 30.37 in 10.0 mi NNE 3.5 mph - N/A   Clear
6:53 PM 28.9 °F 22.8 °F 26.1 °F 89% 30.40 in 10.0 mi NE 5.8 mph - N/A   Clear
9:53 PM 21.9 °F - 21.0 °F 96% 30.41 in 7.0 mi Calm Calm - N/A   Clear
10:53 PM 21.9 °F 17.2 °F 21.0 °F 96% 30.41 in 7.0 mi WNW 3.5 mph - N/A   Clear
11:53 PM 19.9 °F - 18.0 °F 92% 30.40 in 7.0 mi Calm Calm - N/A   Clear